• en France
  • Liste des pays
  • À 7 jours
  • Température de l'eau
  • Carte satellitaire
  • Carte météo
  • Widgets météo
  • user-avatar
    Se connecter

    Météo par heure à Ordino

    Ce jour, 20 Septembre, Jeudi

    Heure Température Précipitation Vent Pression Humidité
    00:00 +12°C° 0 mm 1 m/s 638 mmHg 74%
    01:00 +12°C° 0 mm 1 m/s 638 mmHg 72%
    02:00 +12°C° 0 mm 1 m/s 637 mmHg 69%
    03:00 +12°C° 0 mm 1 m/s 637 mmHg 67%
    04:00 +11°C° 0 mm 1 m/s 637 mmHg 65%
    05:00 +11°C° 0 mm 1 m/s 637 mmHg 62%
    06:00 +11°C° 0 mm 1 m/s 637 mmHg 60%
    07:00 +14°C° 0 mm 1 m/s 638 mmHg 53%
    08:00 +18°C° 0 mm 1 m/s 639 mmHg 46%
    09:00 +19°C° 0 mm 0 m/s 640 mmHg 38%
    10:00 +22°C° 0 mm 1 m/s 641 mmHg 36%
    11:00 +24°C° 0 mm 1 m/s 641 mmHg 34%
    12:00 +25°C° 0 mm 1 m/s 641 mmHg 32%
    13:00 +24°C° 0 mm 1 m/s 640 mmHg 33%
    14:00 +24°C° 0 mm 2 m/s 640 mmHg 34%
    15:00 +24°C° 0 mm 2 m/s 639 mmHg 35%
    16:00 +22°C° 0 mm 1 m/s 638 mmHg 44%
    17:00 +19°C° 0 mm 1 m/s 637 mmHg 52%
    18:00 +16°C° 0 mm 1 m/s 636 mmHg 60%
    19:00 +15°C° 0 mm 1 m/s 637 mmHg 63%
    20:00 +15°C° 0 mm 1 m/s 637 mmHg 65%
    21:00 +14°C° 0 mm 1 m/s 637 mmHg 67%
    22:00 +14°C° 0 mm 1 m/s 636 mmHg 68%
    23:00 +14°C° 0 mm 1 m/s 636 mmHg 68%

    Demain, 21 Septembre, Vendredi

    Heure Température Précipitation Vent Pression Humidité
    00:00 +13°C° 0 mm 1 m/s 636 mmHg 68%
    01:00 +13°C° 0 mm 1 m/s 636 mmHg 68%
    02:00 +13°C° 0 mm 1 m/s 636 mmHg 68%
    03:00 +13°C° 0 mm 1 m/s 636 mmHg 68%
    04:00 +13°C° 0 mm 1 m/s 636 mmHg 68%
    05:00 +13°C° 0 mm 1 m/s 636 mmHg 67%
    06:00 +12°C° 0 mm 1 m/s 636 mmHg 67%
    07:00 +15°C° 0 mm 1 m/s 637 mmHg 61%
    08:00 +18°C° 0 mm 1 m/s 639 mmHg 55%
    09:00 +21°C° 0 mm 1 m/s 640 mmHg 50%
    10:00 +21°C° 0 mm 1 m/s 640 mmHg 48%
    11:00 +22°C° 0 mm 1 m/s 640 mmHg 46%
    12:00 +23°C° 0 mm 2 m/s 640 mmHg 44%
    13:00 +23°C° 0 mm 2 m/s 640 mmHg 46%
    14:00 +21°C° 0 mm 2 m/s 640 mmHg 47%
    15:00 +22°C° 0 mm 1 m/s 639 mmHg 49%
    16:00 +21°C° 0 mm 1 m/s 639 mmHg 56%
    17:00 +19°C° 0 mm 1 m/s 639 mmHg 63%
    18:00 +16°C° 0 mm 1 m/s 638 mmHg 70%
    19:00 +16°C° 0 mm 1 m/s 639 mmHg 74%
    20:00 +15°C° 0 mm 1 m/s 639 mmHg 78%
    21:00 +14°C° 0 mm 1 m/s 639 mmHg 82%
    22:00 +14°C° 0 mm 1 m/s 639 mmHg 84%
    23:00 +13°C° 0 mm 1 m/s 639 mmHg 86%

    Après-demain, 22 Septembre, Samedi

    Heure Température Précipitation Vent Pression Humidité
    00:00 +13°C° 0 mm 1 m/s 639 mmHg 89%
    01:00 +12°C° 0 mm 1 m/s 638 mmHg 89%
    02:00 +12°C° 0 mm 1 m/s 638 mmHg 89%
    03:00 +12°C° 0 mm 1 m/s 638 mmHg 90%
    04:00 +12°C° 0 mm 1 m/s 638 mmHg 88%
    05:00 +12°C° 0 mm 1 m/s 638 mmHg 87%
    06:00 +12°C° 0 mm 1 m/s 638 mmHg 86%
    07:00 +14°C° 0 mm 1 m/s 640 mmHg 76%
    08:00 +18°C° 0 mm 1 m/s 641 mmHg 65%
    09:00 +20°C° 0 mm 1 m/s 642 mmHg 55%
    10:00 +21°C° 0 mm 1 m/s 642 mmHg 50%
    11:00 +23°C° 0 mm 1 m/s 642 mmHg 46%
    12:00 +24°C° 0 mm 2 m/s 643 mmHg 41%
    13:00 +24°C° 0 mm 2 m/s 642 mmHg 42%
    14:00 +24°C° 0 mm 2 m/s 642 mmHg 42%
    15:00 +24°C° 0 mm 2 m/s 642 mmHg 43%
    16:00 +21°C° 0 mm 1 m/s 641 mmHg 51%
    17:00 +19°C° 0 mm 1 m/s 640 mmHg 60%
    18:00 +16°C° 0 mm 1 m/s 639 mmHg 68%
    19:00 +16°C° 0 mm 1 m/s 640 mmHg 70%
    20:00 +15°C° 0 mm 1 m/s 640 mmHg 73%
    21:00 +14°C° 0 mm 1 m/s 640 mmHg 75%
    22:00 +14°C° 0 mm 1 m/s 640 mmHg 75%
    23:00 +14°C° 0 mm 1 m/s 640 mmHg 75%

    23 Septembre, Dimanche

    Heure Température Précipitation Vent Pression Humidité
    00:00 +14°C° 0 mm 1 m/s 639 mmHg 76%
    01:00 +14°C° 0 mm 1 m/s 639 mmHg 75%
    02:00 +13°C° 0 mm 1 m/s 639 mmHg 74%
    03:00 +13°C° 0 mm 1 m/s 639 mmHg 73%
    04:00 +13°C° 0 mm 1 m/s 639 mmHg 72%
    05:00 +13°C° 0 mm 1 m/s 638 mmHg 71%
    06:00 +13°C° 0 mm 1 m/s 638 mmHg 70%
    07:00 +16°C° 0 mm 1 m/s 639 mmHg 61%
    08:00 +20°C° 0 mm 1 m/s 640 mmHg 52%
    09:00 +23°C° 0 mm 1 m/s 641 mmHg 43%
    10:00 +24°C° 0 mm 1 m/s 641 mmHg 40%
    11:00 +25°C° 0 mm 2 m/s 642 mmHg 37%
    12:00 +26°C° 0 mm 2 m/s 642 mmHg 34%
    13:00 +26°C° 0 mm 2 m/s 641 mmHg 34%
    14:00 +26°C° 0 mm 3 m/s 641 mmHg 34%
    15:00 +25°C° 0 mm 3 m/s 641 mmHg 35%
    16:00 +22°C° 0 mm 3 m/s 640 mmHg 43%
    17:00 +20°C° 0 mm 3 m/s 640 mmHg 51%
    18:00 +17°C° 0 mm 3 m/s 639 mmHg 59%
    19:00 +16°C° 0 mm 2 m/s 639 mmHg 65%
    20:00 +15°C° 0 mm 2 m/s 639 mmHg 71%
    21:00 +14°C° 0 mm 2 m/s 639 mmHg 77%
    22:00 +13°C° 0 mm 3 m/s 639 mmHg 79%
    23:00 +12°C° 0 mm 3 m/s 639 mmHg 80%

    24 Septembre, Lundi

    Heure Température Précipitation Vent Pression Humidité
    00:00 +12°C° 0 mm 3 m/s 639 mmHg 82%
    01:00 +11°C° 0 mm 3 m/s 639 mmHg 83%
    02:00 +11°C° 0 mm 3 m/s 639 mmHg 83%
    03:00 +10°C° 0 mm 3 m/s 639 mmHg 84%
    04:00 +10°C° 0 mm 3 m/s 639 mmHg 83%
    05:00 +9°C° 0 mm 3 m/s 639 mmHg 83%
    06:00 +8°C° 0 mm 3 m/s 639 mmHg 83%
    07:00 +10°C° 0 mm 3 m/s 640 mmHg 74%
    08:00 +11°C° 0 mm 3 m/s 640 mmHg 66%
    09:00 +13°C° 0 mm 3 m/s 641 mmHg 58%
    10:00 +14°C° 0 mm 3 m/s 642 mmHg 53%
    11:00 +16°C° 0 mm 3 m/s 642 mmHg 48%
    12:00 +18°C° 0 mm 3 m/s 642 mmHg 42%
    13:00 +17°C° 0 mm 3 m/s 642 mmHg 43%
    14:00 +17°C° 0 mm 3 m/s 641 mmHg 43%
    15:00 +15°C° 0 mm 4 m/s 641 mmHg 43%
    16:00 +13°C° 0 mm 3 m/s 640 mmHg 48%
    17:00 +11°C° 0 mm 3 m/s 640 mmHg 52%
    18:00 +9°C° 0 mm 3 m/s 639 mmHg 57%
    19:00 +8°C° 0 mm 3 m/s 639 mmHg 57%
    20:00 +7°C° 0 mm 3 m/s 639 mmHg 57%
    21:00 +5°C° 0 mm 3 m/s 639 mmHg 57%
    22:00 +6°C° 0 mm 2 m/s 639 mmHg 54%
    23:00 +5°C° 0 mm 2 m/s 639 mmHg 50%

    25 Septembre, Mardi

    Heure Température Précipitation Vent Pression Humidité
    00:00 +5°C° 0 mm 2 m/s 638 mmHg 47%
    01:00 +5°C° 0 mm 2 m/s 638 mmHg 45%
    02:00 +5°C° 0 mm 2 m/s 638 mmHg 44%
    03:00 +5°C° 0 mm 2 m/s 638 mmHg 42%
    04:00 +5°C° 0 mm 2 m/s 638 mmHg 41%
    05:00 +5°C° 0 mm 2 m/s 638 mmHg 41%
    06:00 +5°C° 0 mm 2 m/s 639 mmHg 40%
    07:00 +9°C° 0 mm 1 m/s 640 mmHg 37%
    08:00 +12°C° 0 mm 1 m/s 641 mmHg 34%
    09:00 +15°C° 0 mm 1 m/s 642 mmHg 31%
    10:00 +18°C° 0 mm 1 m/s 643 mmHg 30%
    11:00 +19°C° 0 mm 1 m/s 643 mmHg 29%
    12:00 +19°C° 0 mm 2 m/s 643 mmHg 28%
    13:00 +19°C° 0 mm 2 m/s 643 mmHg 30%
    14:00 +19°C° 0 mm 2 m/s 642 mmHg 32%
    15:00 +19°C° 0 mm 2 m/s 642 mmHg 34%
    16:00 +16°C° 0 mm 2 m/s 641 mmHg 42%
    17:00 +14°C° 0 mm 2 m/s 641 mmHg 51%
    18:00 +10°C° 0 mm 2 m/s 640 mmHg 60%
    19:00 +10°C° 0 mm 2 m/s 640 mmHg 64%
    20:00 +10°C° 0 mm 1 m/s 640 mmHg 69%
    21:00 +9°C° 0 mm 1 m/s 640 mmHg 74%
    22:00 +9°C° 0 mm 1 m/s 640 mmHg 75%
    23:00 +9°C° 0 mm 1 m/s 640 mmHg 76%
    Voir plus